date,time,DOY,Ta_1_1_1,RH_1_1_1,LWin_1_1_1,LWout_1_1_1,SWin_1_1_1,SWout_1_1_1,PPFD_1_1_1,SWC_1_1_1,Ts_1_1_1
[yyyy-mm-dd],[HH:MM],[ddd.ddd],[K],[%],[W+1m-2],[W+1m-2],[W+1m-2],[W+1m-2],[µmol+1m-2s-1],[m+3m-3],[K]
2013-06-20,00:30,171.020,289.48800000000006,76.964333333333343,-9999.0,-9999.0,0.24333333333333335,-3.9049999999999998,1.66666666666666699E-002,-9999.0,273.15999999999991
2013-06-20,01:00,171.041,289.31633333333338,77.549666666666653,-9.6699999999999999,-9999.0,0.23599999999999996,-3.7803333333333327,1.33333333333333342E-002,-9999.0,273.15999999999991
2013-06-20,01:30,171.062,289.34500000000003,76.226000000000013,-9.9149999999999991,-9999.0,0.27333333333333337,-3.7199999999999998,1.60000000000000003E-002,-9999.0,273.15999999999991
2013-06-20,02:00,171.083,289.39533333333333,75.225000000000009,-9999.0,-9999.0,0.36899999999999999,-3.7149999999999994,1.96666666666666691E-002,-9999.0,273.15999999999991
2013-06-20,02:30,171.104,289.39633333333336,75.307333333333332,-9.9800000000000004,-9999.0,0.21133333333333346,-3.7709999999999999,2.36666666666666727E-002,-9999.0,273.15999999999991
2013-06-20,03:00,171.124,289.06066666666663,77.161666666666662,-9999.0,-9999.0,0.12633333333333335,-3.8246666666666664,1.89999999999999995E-002,-9999.0,273.15999999999991
2013-06-20,03:30,171.145,288.70900000000000,79.202333333333343,-9.9700000000000006,-9999.0,8.83333333333333470E-002,-3.7440000000000002,4.56666666666666957E-002,-9999.0,273.15999999999991
2013-06-20,04:00,171.166,288.45566666666662,80.508000000000010,-9.8900000000000006,-9999.0,0.22166666666666665,-3.0213333333333332,1.1960000000000002,-9999.0,273.15999999999991
2013-06-20,04:30,171.187,288.33466666666669,80.576333333333324,-9999.0,-9999.0,0.95033333333333359,2.7899999999999996,15.328666666666667,-9999.0,273.15999999999991
2013-06-20,05:00,171.208,288.45700000000005,79.457000000000022,-9.5180000000000007,-9999.0,8.6870000000000012,40.185666666666663,77.497666666666674,-9999.0,273.15999999999991
2013-06-20,05:30,171.229,289.00700000000018,76.466333333333338,-9.5128571428571433,-9999.0,23.629333333333332,115.24833333333332,205.77933333333334,-9999.0,273.15999999999991
2013-06-20,06:00,171.249,289.94633333333331,71.792333333333332,-9.3903571428571428,-9999.0,36.839666666666666,198.11033333333333,364.18033333333335,-9999.0,273.15999999999991
2013-06-20,06:30,171.270,291.08066666666662,67.822666666666677,-9.3700000000000010,-9999.0,47.866666666666681,266.24800000000005,502.66799999999995,-9999.0,273.15999999999991
2013-06-20,07:00,171.291,292.14500000000004,66.008666666666656,-9.2426923076923071,-9999.0,54.675666666666665,310.65833333333336,606.39433333333341,-9999.0,273.15999999999991
2013-06-20,07:30,171.312,292.78700000000003,64.549333333333337,-8.0582608695652169,-9999.0,71.062999999999974,410.40199999999999,799.82999999999981,-9999.0,273.15999999999991
2013-06-20,08:00,171.333,292.74966666666671,65.879666666666665,-7.8706666666666667,-9999.0,79.590666666666664,468.96466666666674,932.08433333333369,-9999.0,273.15999999999991
2013-06-20,08:30,171.354,292.71566666666666,68.475000000000009,-8.1493103448275850,-9999.0,75.773666666666671,451.67900000000003,913.51199999999983,-9999.0,273.15999999999991
2013-06-20,09:00,171.374,292.61533333333335,68.471666666666664,-8.3336666666666659,-9999.0,49.296333333333337,294.51100000000002,613.65300000000013,-9999.0,273.15999999999991
2013-06-20,09:30,171.395,292.11066666666676,70.965333333333334,-9.1938888888888890,-9999.0,41.196333333333328,243.98333333333326,518.04100000000005,-9999.0,273.15999999999991
2013-06-20,10:00,171.416,291.07566666666673,77.538333333333341,-9.3599999999999994,-9999.0,39.888666666666680,231.51166666666666,478.19600000000020,-9999.0,273.15999999999991
2013-06-20,10:30,171.437,290.50633333333343,83.010333333333350,-8.2917241379310340,-9999.0,38.686000000000000,216.25199999999998,467.04533333333336,-9999.0,273.15999999999991
2013-06-20,11:00,171.458,290.60533333333336,83.576666666666640,-8.6065384615384595,-9999.0,32.964999999999996,197.79133333333328,432.85633333333334,-9999.0,273.15999999999991
2013-06-20,11:30,171.479,290.12600000000003,88.415666666666638,-6.5937500000000000,-2.2510714285714282,6.6153333333333331,37.502666666666663,101.46533333333336,-9999.0,273.15999999999991
2013-06-20,12:00,171.499,289.30566666666675,94.690333333333356,-3.8666666666666676,-1.2553333333333330,15.434999999999999,91.356000000000023,213.93799999999999,-9999.0,273.15999999999991
2013-06-20,12:30,171.520,289.76066666666674,94.104333333333315,-6.4089999999999980,0.11300000000000002,40.474000000000004,245.00933333333336,534.91333333333330,-9999.0,273.15999999999991
2013-06-20,13:00,171.541,290.96033333333338,90.236333333333320,-6.3919999999999995,-0.60166666666666624,106.70266666666670,654.17533333333336,1336.7150000000001,-9999.0,273.15999999999991
2013-06-20,13:30,171.562,291.99900000000002,85.118333333333325,-7.8829629629629627,-9.9000000000000004,97.298666666666676,579.57833333333326,1183.6513333333335,-9999.0,273.15999999999991
2013-06-20,14:00,171.583,292.69000000000000,79.933333333333323,-6.3656666666666668,-9999.0,95.024000000000015,558.75766666666664,1145.7370000000001,-9999.0,273.15999999999991
2013-06-20,14:30,171.604,293.56433333333342,74.069333333333333,-7.2107407407407402,-9999.0,87.608333333333334,516.21833333333336,1055.4259999999999,-9999.0,273.15999999999991
2013-06-20,15:00,171.624,293.28366666666665,77.028000000000006,-9.5666666666666682,-9999.0,31.617000000000004,182.39800000000008,387.87733333333347,-9999.0,273.15999999999991
2013-06-20,15:30,171.645,293.00533333333345,78.511666666666670,-9.4861538461538455,-9999.0,27.100666666666662,159.25599999999997,337.96866666666671,-9999.0,273.15999999999991
2013-06-20,16:00,171.666,292.73800000000006,79.555333333333365,-9.7400000000000002,-3.6615000000000002,4.0620000000000003,18.557666666666666,54.866000000000007,-9999.0,273.15999999999991
2013-06-20,16:30,171.687,291.49400000000003,90.188666666666663,-6.6286666666666667,-1.1760000000000006,3.3146666666666667,10.618000000000000,37.351666666666659,-9999.0,273.15999999999991
2013-06-20,17:00,171.708,290.83866666666671,96.920999999999992,-5.9349999999999996,-1.2549999999999999,7.5753333333333330,45.151333333333334,110.51900000000002,-9999.0,273.15999999999991
2013-06-20,17:30,171.729,290.82600000000008,95.822333333333319,-7.6933333333333342,-1.5080000000000000,4.2913333333333332,26.797666666666665,68.738000000000014,-9999.0,273.15999999999991
2013-06-20,18:00,171.749,290.52566666666661,97.890666666666661,-5.8489999999999993,-1.5443333333333333,1.3903333333333336,8.4866666666666681,25.073666666666675,-9999.0,273.15999999999991
2013-06-20,18:30,171.770,290.30800000000011,98.981666666666641,-5.4586666666666650,-1.4789999999999996,1.2633333333333330,7.8550000000000004,21.544333333333331,-9999.0,273.15999999999991
2013-06-20,19:00,171.791,290.13066666666674,99.319666666666677,-5.3913333333333338,-1.3856666666666668,2.1579999999999995,11.432000000000000,27.413999999999994,-9999.0,273.15999999999991
2013-06-20,19:30,171.812,289.95799999999991,99.129333333333307,-5.6433333333333326,-1.4916666666666669,2.1846666666666672,9.6180000000000003,21.872666666666667,-9999.0,273.15999999999991
2013-06-20,20:00,171.833,290.03499999999997,99.130333333333283,-6.2799999999999985,-1.3179999999999998,0.51166666666666683,1.0193333333333332,4.1179999999999994,-9999.0,273.15999999999991
2013-06-20,20:30,171.854,290.14266666666668,99.131333333333359,-6.5783333333333323,-1.2570000000000001,0.28533333333333333,-0.83733333333333337,0.18066666666666667,-9999.0,273.15999999999991
2013-06-20,21:00,171.874,290.23300000000006,99.082999999999956,-6.1459999999999999,-1.0186666666666666,0.26500000000000001,-0.67733333333333334,1.46666666666666716E-002,-9999.0,273.15999999999991
2013-06-20,21:30,171.895,290.18500000000012,99.491333333333330,-5.0610000000000017,-1.6503333333333332,0.14133333333333331,-0.52266666666666661,9.66666666666666889E-003,-9999.0,273.15999999999991
2013-06-20,22:00,171.916,289.96033333333332,99.708333333333314,-4.7493333333333334,-4.7609999999999992,0.40999999999999998,-0.57499999999999996,1.33333333333333377E-002,-9999.0,273.15999999999991
2013-06-20,22:30,171.937,289.84633333333335,98.965333333333334,-5.1023333333333332,-6.7492592592592606,0.58299999999999996,-0.72866666666666657,8.00000000000000190E-003,-9999.0,273.15999999999991
2013-06-20,23:00,171.958,289.65600000000001,98.916666666666671,-5.5220000000000011,-9999.0,0.41599999999999998,-1.2700000000000000,1.00000000000000019E-002,-9999.0,273.15999999999991
2013-06-20,23:30,171.979,289.61500000000001,99.144666666666652,-5.8516666666666675,-9999.0,0.37833333333333335,-1.1819999999999999,8.00000000000000017E-003,-9999.0,273.15999999999991
2013-06-21,00:00,172.000,289.58966666666669,98.706999999999979,-6.1023333333333332,-9999.0,0.65966666666666673,-1.7956666666666667,1.13333333333333359E-002,-9999.0,273.15999999999991
